Location: Chevoux
(46.3801°N, 4.9476°E)
Time: 02:56:39
(UTC+00:00)

Tiros 1 despin weight - Visible Passes

Search period start: 12 May 2021 00:00
Search period end: 22 May 2021 00:00
Orbit: 593 x 642 km, 48.2° (Epoch: 11 May)

Date Brightness Start Highest point End Pass type
(mag) Time Alt. Az. Time Alt. Az. Time Alt. Az.
12 May ? 01:16:48 10° WNW 01:21:27 65° SSW 01:26:03 10° ESE visible
12 May ? 02:59:08 10° W 03:02:26 19° SW 03:05:42 10° S visible
12 May ? 20:28:19 10° SW 20:32:52 54° SSE 20:37:28 10° ENE visible
12 May ? 22:09:43 10° W 22:14:26 74° N 22:19:08 10° ENE visible
12 May ? 23:51:30 10° WNW 23:56:14 81° NNE 23:56:36 73° ENE visible
13 May ? 01:33:13 10° WNW 01:40:58 16° SE 01:42:02 10° SE visible
13 May ? 03:18:25 10° SW 03:18:25 10° SW 03:19:01 10° SW visible
13 May ? 20:44:27 10° WSW 20:49:07 78° SSE 20:53:50 10° ENE visible
13 May ? 22:26:09 10° W 22:30:50 70° N 22:34:05 20° E visible
14 May ? 00:07:51 10° WNW 00:11:05 43° W 00:11:05 43° W visible
14 May ? 21:00:46 10° W 21:05:28 82° NNW 21:10:12 10° ENE visible
14 May ? 22:42:33 10° WNW 22:47:16 74° N 22:48:59 38° E visible
15 May ? 00:24:13 10° WNW 00:25:59 22° W 00:25:59 22° W visible
15 May ? 19:35:38 10° SW 19:40:14 64° SSE 19:44:53 10° ENE visible
15 May ? 21:17:10 10° W 21:21:52 71° N 21:26:34 10° E visible
15 May ? 22:58:55 10° WNW 23:03:38 88° NNE 23:03:59 77° E visible
16 May ? 00:40:42 10° W 00:41:00 12° W 00:41:00 12° W visible
16 May ? 19:51:51 10° WSW 19:56:31 87° SSE 20:01:14 10° ENE visible
16 May ? 21:33:35 10° W 21:38:17 70° N 21:42:04 16° E visible
16 May ? 23:15:16 10° WNW 23:19:04 55° W 23:19:04 55° W visible
17 May ? 20:08:12 10° W 20:12:53 76° N 20:17:37 10° ENE visible
17 May ? 21:49:58 10° WNW 21:54:41 78° NNE 21:57:11 28° E visible
17 May ? 23:31:40 10° WNW 23:34:11 29° W 23:34:11 29° W visible
18 May ? 20:24:37 10° W 20:29:18 70° N 20:34:00 10° E visible
18 May ? 22:06:20 10° WNW 22:11:03 84° SSW 22:12:19 48° ESE visible
18 May ? 23:48:12 10° W 23:49:19 16° W 23:49:19 16° W visible
19 May ? 20:41:02 10° W 20:45:43 72° N 20:50:25 10° E visible
19 May ? 22:22:41 10° WNW 22:27:19 60° SSW 22:27:29 60° SSW visible
20 May ? 20:57:24 10° WNW 21:02:06 84° NNE 21:05:40 17° ESE visible
20 May ? 22:39:07 10° W 22:42:42 36° WSW 22:42:42 36° WSW visible
21 May ? 21:13:44 10° WNW 21:18:26 75° SSW 21:20:54 27° ESE visible
21 May ? 22:55:47 10° W 22:57:55 20° WSW 22:57:55 20° WSW visible
